Temperature
-7 -7 -8 -9 -10 -11 -12 -12 -12 -12 -12 -12 -12 -12 -11 -11 -11 -11 -11 -11 -11 -11 -10 -10 -10 -9 -9 -9 -9 -8 -8 -8 -8 -7 -6 -5 -4 -3 -1 -0 1 4 5
-7 -7 -8 -9 -10 -11 -12 -12 -12 -12 -12 -11 -11 -11 -11 -11 -11 -10 -10 -10 -10 -10 -10 -10 -10 -9 -9 -9 -9 -9 -9 -8 -8 -8 -6 -5 -4 -2 -2 -0 1 3 5
-7 -7 -8 -9 -10 -11 -12 -12 -12 -12 -12 -11 -11 -11 -11 -11 -11 -10 -10 -10 -10 -10 -10 -10 -10 -10 -10 -9 -9 -9 -9 -9 -8 -7 -6 -5 -3 -2 -2 -0 1 3 4
-7 -7 -8 -9 -10 -11 -12 -12 -12 -12 -12 -12 -11 -11 -10 -10 -11 -11 -10 -10 -10 -10 -10 -10 -10 -10 -10 -10 -10 -10 -9 -9 -8 -7 -6 -5 -4 -2 -2 -1 1 2 4
-7 -7 -8 -9 -10 -11 -12 -12 -12 -12 -12 -12 -12 -11 -10 -10 -10 -11 -11 -11 -11 -11 -10 -10 -10 -11 -10 -11 -10 -10 -10 -10 -9 -8 -6 -5 -4 -3 -2 -1 0 2 4
-7 -7 -8 -9 -10 -11 -11 -12 -12 -12 -12 -12 -12 -12 -11 -10 -11 -11 -12 -12 -12 -12 -12 -11 -11 -11 -11 -11 -11 -11 -10 -10 -10 -9 -8 -6 -5 -4 -3 -2 -1 1 3
-6 -7 -8 -9 -10 -11 -11 -12 -12 -12 -13 -13 -12 -12 -11 -11 -11 -12 -12 -12 -12 -12 -12 -12 -12 -12 -11 -11 -11 -11 -10 -10 -10 -10 -9 -7 -6 -5 -4 -2 -1 -0 2
-6 -7 -8 -9 -10 -10 -11 -12 -12 -12 -13 -13 -13 -12 -12 -12 -11 -12 -12 -12 -12 -13 -13 -13 -13 -12 -11 -11 -11 -11 -11 -11 -10 -10 -9 -8 -7 -6 -4 -3 -2 -1 1
-6 -7 -8 -9 -9 -10 -11 -11 -12 -12 -13 -13 -13 -13 -13 -12 -12 -11 -12 -12 -13 -13 -13 -13 -13 -13 -12 -12 -12 -11 -11 -11 -10 -10 -9 -8 -7 -6 -5 -3 -2 -1 0
-6 -7 -8 -9 -9 -10 -10 -11 -12 -12 -13 -13 -13 -13 -13 -13 -12 -12 -12 -13 -13 -13 -14 -14 -13 -13 -13 -12 -13 -12 -12 -11 -10 -9 -8 -8 -7 -6 -5 -3 -2 -2 -1
-6 -7 -8 -9 -9 -10 -10 -10 -11 -12 -12 -12 -12 -13 -13 -13 -12 -12 -12 -13 -13 -13 -14 -14 -14 -13 -13 -13 -13 -13 -13 -11 -10 -9 -9 -8 -7 -6 -5 -4 -3 -2 -1
-6 -7 -8 -8 -9 -9 -10 -10 -10 -11 -11 -12 -12 -12 -12 -12 -12 -12 -12 -12 -13 -13 -14 -14 -14 -14 -14 -14 -14 -13 -12 -11 -10 -10 -9 -8 -7 -6 -5 -4 -3 -3 -1
-6 -7 -7 -8 -9 -9 -10 -10 -10 -10 -11 -11 -12 -12 -12 -12 -12 -12 -12 -13 -13 -14 -14 -14 -14 -14 -14 -14 -14 -13 -12 -11 -11 -11 -10 -10 -9 -8 -6 -4 -3 -3 -2
-6 -6 -7 -7 -8 -8 -9 -10 -10 -10 -11 -11 -11 -11 -11 -11 -11 -11 -12 -12 -13 -13 -14 -14 -14 -14 -14 -14 -14 -13 -13 -13 -12 -11 -11 -10 -9 -8 -6 -4 -3 -2 -2
-6 -6 -7 -7 -7 -8 -8 -9 -9 -10 -11 -11 -11 -11 -11 -11 -11 -11 -11 -12 -13 -13 -14 -14 -14 -14 -14 -14 -14 -14 -13 -13 -12 -12 -11 -10 -9 -8 -7 -6 -4 -3 -2
-6 -6 -6 -7 -7 -7 -7 -7 -8 -9 -10 -10 -11 -11 -10 -10 -10 -11 -11 -12 -13 -13 -14 -14 -14 -14 -14 -14 -14 -14 -14 -14 -13 -12 -12 -11 -10 -10 -9 -8 -6 -4 -3
-6 -6 -6 -7 -7 -7 -7 -7 -7 -7 -8 -10 -10 -10 -11 -10 -11 -11 -11 -12 -12 -13 -13 -13 -14 -14 -14 -14 -14 -14 -14 -14 -13 -13 -12 -12 -11 -11 -10 -9 -8 -6 -5
-6 -6 -6 -6 -6 -7 -7 -7 -7 -8 -8 -8 -10 -11 -11 -11 -11 -11 -11 -11 -11 -12 -13 -13 -13 -14 -14 -14 -14 -14 -14 -14 -14 -13 -13 -12 -12 -11 -11 -10 -9 -8 -7
-5 -6 -6 -6 -6 -6 -6 -6 -7 -7 -8 -8 -9 -10 -11 -11 -11 -11 -11 -11 -11 -12 -12 -12 -13 -13 -13 -13 -14 -14 -14 -14 -14 -13 -13 -13 -12 -12 -11 -11 -10 -10 -8
-5 -5 -5 -5 -5 -6 -6 -6 -6 -6 -7 -8 -9 -11 -12 -12 -11 -11 -11 -11 -11 -11 -11 -11 -12 -12 -13 -13 -13 -13 -13 -14 -14 -14 -13 -13 -13 -12 -12 -11 -11 -11 -10
-5 -5 -5 -5 -5 -5 -5 -6 -6 -6 -7 -7 -8 -10 -12 -12 -12 -12 -11 -11 -11 -11 -11 -11 -11 -11 -12 -12 -12 -13 -13 -13 -13 -14 -13 -13 -13 -13 -12 -12 -12 -11 -11
-5 -5 -5 -5 -5 -5 -5 -6 -6 -6 -6 -7 -7 -8 -9 -10 -11 -12 -11 -11 -11 -11 -10 -10 -10 -11 -11 -11 -12 -12 -12 -13 -13 -13 -13 -13 -13 -13 -13 -12 -12 -12 -12
-5 -5 -5 -5 -5 -5 -6 -6 -6 -6 -7 -7 -7 -8 -9 -10 -11 -12 -12 -11 -11 -10 -10 -10 -10 -10 -10 -10 -11 -11 -12 -12 -13 -13 -13 -13 -13 -13 -13 -13 -13 -12 -12
-4 -5 -5 -5 -5 -6 -6 -6 -6 -6 -7 -7 -7 -8 -8 -9 -11 -11 -11 -11 -11 -10 -10 -10 -10 -9 -9 -10 -10 -10 -11 -12 -12 -13 -13 -13 -13 -13 -13 -13 -13 -13 -13
-4 -4 -5 -5 -5 -6 -6 -6 -7 -7 -7 -7 -7 -8 -8 -9 -10 -11 -11 -11 -11 -10 -10 -10 -9 -9 -9 -9 -9 -9 -10 -11 -11 -12 -12 -13 -13 -13 -13 -13 -13 -13 -13
-4 -4 -5 -5 -5 -6 -6 -6 -7 -7 -7 -8 -8 -8 -8 -9 -9 -10 -11 -11 -11 -10 -10 -9 -9 -9 -9 -9 -9 -9 -9 -10 -11 -11 -12 -12 -13 -13 -13 -13 -13 -13 -13
Wind_Speed
8 8 9 10 11 12 10 11 13 14 18 17 18 20 20 18 14 10 10 10 10 10 9 9 9 9 8 8 8 8 9 9 12 12 10 10 11 12 12 10 11 8 7
8 8 9 10 9 11 12 12 15 14 17 18 18 18 19 17 14 11 11 11 10 9 9 9 8 8 9 8 7 8 8 9 11 14 12 10 11 11 11 11 8 6 5
7 8 9 10 10 11 12 12 14 14 14 17 16 18 18 16 12 12 12 13 13 12 12 11 11 10 10 9 9 8 8 9 9 11 12 10 8 8 8 8 7 5 6
7 8 9 9 10 11 11 11 12 13 12 15 16 16 17 15 9 9 12 13 13 14 14 14 13 12 11 12 10 9 10 10 9 9 8 7 6 7 5 4 3 3 3
7 8 9 9 10 10 11 11 11 11 13 13 15 16 16 14 9 8 10 13 12 13 14 14 14 19 21 17 14 12 11 10 9 8 7 6 5 4 3 3 2 2 2
7 7 9 10 10 10 11 11 12 12 12 13 13 15 17 15 20 23 15 10 11 12 13 14 14 15 20 21 24 22 19 14 11 8 7 7 8 7 6 6 3 1 1
7 7 8 9 10 11 12 12 12 10 10 12 12 13 15 19 24 22 23 11 10 11 12 13 14 17 20 8 17 21 18 21 19 11 8 9 9 9 9 8 6 3 1
7 7 8 8 9 10 10 11 11 8 9 8 10 13 13 19 26 20 21 11 8 10 11 12 14 14 18 15 13 14 11 12 15 11 8 8 9 10 8 7 7 6 4
7 7 8 8 8 9 9 10 8 8 8 8 9 11 12 17 25 21 16 7 8 10 11 14 16 13 24 25 16 15 14 12 17 19 17 15 16 15 12 6 5 3 1
7 7 8 7 8 9 9 8 7 8 9 10 11 10 11 13 21 23 16 6 8 9 10 13 20 22 25 26 16 15 16 14 14 14 14 14 11 12 15 8 5 3 2
7 7 7 7 8 8 7 7 8 9 10 10 11 11 10 12 18 22 20 6 7 9 11 11 14 26 25 25 21 16 19 17 13 12 10 10 9 9 9 8 6 3 3
6 7 7 8 8 8 8 8 8 9 10 10 9 10 8 10 14 17 19 16 13 8 10 10 14 25 24 24 20 23 25 20 12 11 11 11 12 11 11 10 8 6 5
6 7 7 8 8 7 7 8 8 8 8 9 8 9 10 9 11 18 16 15 17 8 7 17 20 23 21 17 23 25 20 14 13 12 12 12 11 11 10 9 8 7 5
6 7 7 7 8 8 8 7 7 8 9 8 7 9 10 10 10 8 5 6 10 8 6 12 18 20 17 19 18 16 13 13 13 12 12 11 11 11 10 10 8 8 4
6 6 6 7 7 7 8 6 8 7 11 12 8 8 10 11 13 19 12 7 6 6 6 6 7 9 11 11 12 12 12 13 13 13 12 13 12 13 11 11 9 8 6
5 6 5 6 6 7 8 9 13 13 17 18 18 17 13 17 21 20 18 17 16 15 8 5 6 7 9 10 10 11 11 12 12 13 12 12 12 12 12 10 9 9 8
5 6 5 6 6 7 7 8 10 12 16 17 19 21 20 21 21 20 19 17 15 13 5 4 5 5 6 7 7 8 9 10 10 10 11 12 12 12 12 11 11 10 9
5 6 6 5 5 5 6 7 8 10 11 10 14 20 22 21 20 20 20 14 9 8 3 4 4 5 5 5 6 6 7 8 8 9 10 11 11 12 11 12 12 12 10
4 4 4 4 4 4 5 6 7 8 9 9 9 12 18 19 19 20 18 8 8 8 6 5 4 4 4 4 4 5 5 6 7 7 9 9 10 10 11 12 11 16 13
4 6 6 4 4 4 4 5 6 7 8 8 9 10 10 10 10 12 12 10 9 9 8 7 5 4 4 3 3 4 5 5 6 7 7 8 9 9 10 12 12 11 11
3 4 6 4 3 4 4 4 5 6 7 8 8 12 17 10 10 11 11 11 11 11 10 8 6 5 4 3 3 3 3 4 4 5 6 6 7 8 8 9 10 10 10
3 3 2 3 3 4 4 4 5 5 6 7 8 9 16 10 9 10 10 11 11 11 10 9 7 5 4 4 4 3 2 2 2 3 4 5 6 6 7 8 9 9 10
4 3 3 2 3 5 5 4 5 5 6 6 7 8 9 9 10 11 11 12 11 11 13 12 9 6 6 7 8 6 5 4 2 1 2 3 4 5 6 7 9 9 10
5 4 3 2 2 3 4 4 5 5 6 6 6 7 8 8 9 11 11 11 11 13 15 15 13 12 11 8 8 10 11 10 7 5 3 2 3 4 4 5 6 8 9
5 5 4 3 2 3 3 4 4 5 6 6 7 7 8 9 10 11 11 11 13 13 16 18 16 16 16 12 8 10 13 13 11 10 8 4 4 3 3 4 5 6 7
6 6 5 4 3 3 3 3 4 5 5 6 6 7 8 9 9 10 10 10 12 12 15 17 20 22 21 14 10 10 12 14 15 14 12 8 5 4 3 3 4 5 6
Wind_Direction
318 323 327 326 326 326 324 322 323 324 327 328 329 331 333 336 333 321 312 305 301 300 300 301 302 303 305 300 292 288 285 283 285 289 285 284 280 282 286 285 283 281 286
318 325 327 326 325 326 325 324 328 329 331 333 335 339 344 348 350 352 347 345 339 337 336 334 331 337 331 322 316 309 302 295 288 290 289 285 277 276 276 275 276 274 271
323 328 327 326 327 326 325 326 331 332 333 337 341 343 344 348 357 9 11 10 10 6 2 356 348 347 352 342 332 329 318 311 299 289 286 282 276 273 271 269 264 259 265
330 328 327 326 326 324 325 328 331 333 337 340 341 342 343 341 351 17 16 13 11 8 7 3 353 353 357 349 346 344 331 323 317 307 293 286 283 276 264 259 265 242 249
330 330 329 326 325 327 330 330 332 338 342 339 341 342 344 343 357 38 25 13 7 3 1 357 352 356 360 2 356 357 347 339 338 335 329 320 317 327 323 305 263 259 250
328 327 327 330 331 332 332 334 337 339 338 339 339 340 343 344 5 27 29 12 3 0 355 350 347 347 355 4 360 1 359 352 354 352 344 343 343 345 339 331 311 259 248
325 324 328 329 331 332 336 337 336 331 332 335 335 337 339 340 1 28 25 17 0 355 350 348 349 348 351 358 357 357 356 357 357 356 345 343 338 340 337 333 333 329 305
323 324 324 326 326 327 332 333 328 321 327 327 326 332 336 340 353 20 26 15 355 349 345 344 342 340 344 11 359 349 351 353 351 350 346 341 340 335 335 320 305 302 287
322 320 318 318 321 325 330 327 320 319 319 321 324 328 332 334 343 5 27 3 1 348 347 351 348 347 354 9 5 352 352 355 354 355 360 1 1 356 4 353 335 301 273
312 310 310 313 320 318 320 318 316 319 321 329 329 327 322 322 334 349 16 16 6 357 351 350 350 2 3 7 8 357 357 356 348 346 351 355 353 355 8 7 343 324 319
304 307 310 315 315 310 318 313 318 323 324 320 318 319 314 322 332 337 355 19 17 3 355 350 351 4 7 7 10 6 2 1 348 346 348 352 354 355 353 348 335 309 305
306 309 311 312 314 324 319 312 315 317 317 312 310 316 319 319 326 328 344 356 10 13 354 348 357 7 9 8 10 9 7 5 357 357 359 1 359 355 347 336 325 306 272
312 310 309 312 311 313 311 309 314 313 313 314 318 324 324 322 322 327 337 348 357 11 0 0 5 8 9 7 8 11 8 4 3 1 360 357 351 344 342 342 340 333 312
306 306 307 310 313 316 319 318 317 316 316 318 324 324 320 317 314 319 315 331 348 359 5 0 5 7 11 9 9 8 6 5 6 0 355 351 352 356 2 2 358 355 351
301 303 310 315 310 316 321 315 319 315 328 342 334 326 326 324 335 350 356 350 344 354 12 3 360 1 5 6 6 7 6 5 5 1 0 360 2 5 7 6 8 11 17
299 309 311 311 317 322 321 324 332 339 340 345 347 345 337 343 351 357 357 358 356 360 12 357 355 359 1 2 3 3 4 6 3 2 3 3 4 6 8 10 15 19 18
280 295 300 313 319 324 327 332 333 336 342 346 349 348 352 359 2 1 3 1 357 1 8 339 337 341 345 351 354 356 357 356 357 1 4 4 4 7 12 15 18 19 17
277 295 306 301 308 315 321 327 333 335 336 337 342 346 353 360 2 3 6 2 350 351 328 315 315 321 329 338 346 349 350 354 360 2 4 5 5 8 14 17 19 23 22
275 281 287 297 310 313 317 326 333 335 335 335 334 339 350 358 359 1 4 356 340 336 325 311 301 302 309 323 333 342 347 353 358 360 4 4 5 9 14 16 19 25 31
267 300 318 328 328 322 318 326 334 337 337 337 338 334 341 356 354 353 353 348 346 338 330 316 301 289 288 299 316 333 346 354 359 2 1 2 3 10 13 14 19 23 29
249 289 318 330 320 311 310 327 329 332 334 336 334 335 353 359 350 346 347 346 345 341 336 326 308 289 273 265 272 302 328 344 356 360 0 1 4 10 11 16 19 25 31
222 245 275 294 302 304 320 330 324 323 327 330 331 340 353 355 346 344 343 341 338 335 333 328 315 290 262 242 235 241 265 301 340 2 5 4 8 11 14 21 24 27 32
201 227 257 283 296 315 336 324 319 319 323 324 329 343 348 348 345 342 340 338 335 334 334 332 326 310 283 251 229 214 217 226 219 167 38 24 19 18 20 23 26 30 36
192 209 225 253 284 300 309 314 317 321 324 324 331 341 342 340 337 337 337 334 334 333 334 334 330 322 309 282 239 222 220 219 205 182 151 99 56 36 32 33 33 33 37
189 198 206 216 247 280 299 310 318 322 327 331 336 339 337 336 334 334 333 332 332 332 332 333 333 332 326 310 266 229 222 216 204 186 165 139 112 83 61 49 47 46 47
187 193 198 203 218 244 271 295 308 316 319 324 328 326 324 327 328 329 331 332 334 333 332 333 331 332 329 324 298 251 226 214 206 191 171 153 140 129 109 83 74 64 61
Height
1542 1535 1529 1523 1517 1511 1505 1499 1492 1485 1478 1469 1461 1452 1443 1435 1428 1422 1417 1414 1411 1408 1406 1404 1402 1399 1396 1393 1390 1387 1384 1381 1376 1370 1369 1367 1366 1366 1367 1368 1370 1373 1380
1540 1534 1528 1522 1516 1510 1504 1497 1491 1484 1477 1470 1463 1455 1447 1439 1433 1427 1421 1417 1413 1409 1407 1404 1402 1399 1394 1390 1387 1383 1379 1376 1373 1366 1363 1362 1361 1362 1362 1364 1366 1369 1375
1538 1533 1527 1521 1514 1508 1503 1497 1490 1484 1477 1471 1464 1457 1450 1444 1438 1432 1427 1422 1417 1413 1409 1406 1403 1399 1394 1389 1384 1380 1376 1371 1368 1363 1359 1358 1357 1358 1359 1360 1362 1366 1370
1537 1532 1526 1519 1514 1508 1503 1497 1490 1484 1478 1471 1465 1459 1453 1447 1441 1435 1430 1425 1420 1416 1412 1408 1403 1399 1394 1388 1383 1378 1373 1368 1363 1359 1356 1354 1354 1355 1356 1357 1359 1362 1367
1536 1530 1524 1519 1513 1508 1502 1496 1490 1484 1479 1473 1467 1461 1454 1448 1443 1438 1432 1427 1422 1417 1413 1408 1404 1400 1395 1389 1383 1377 1371 1366 1361 1356 1354 1352 1352 1353 1354 1355 1356 1359 1363
1535 1530 1524 1519 1513 1507 1502 1496 1491 1485 1479 1473 1468 1462 1456 1450 1446 1440 1434 1428 1423 1418 1413 1408 1403 1398 1394 1387 1382 1375 1370 1365 1361 1356 1353 1351 1350 1351 1352 1352 1354 1357 1361
1534 1529 1524 1518 1513 1507 1502 1496 1491 1485 1479 1474 1469 1463 1457 1451 1447 1441 1435 1430 1424 1419 1413 1408 1404 1399 1393 1386 1380 1374 1368 1363 1360 1357 1353 1351 1350 1350 1350 1351 1352 1354 1358
1533 1528 1523 1518 1513 1507 1502 1496 1491 1485 1480 1474 1469 1464 1459 1453 1448 1442 1436 1431 1426 1420 1414 1409 1405 1399 1394 1387 1380 1373 1368 1363 1358 1355 1353 1351 1349 1349 1349 1349 1350 1353 1356
1532 1528 1523 1518 1513 1507 1501 1496 1491 1485 1480 1475 1470 1465 1460 1454 1448 1444 1437 1432 1427 1421 1416 1410 1406 1401 1395 1388 1380 1374 1369 1363 1358 1354 1351 1349 1348 1347 1347 1348 1350 1352 1354
1531 1527 1522 1518 1513 1508 1502 1496 1491 1486 1480 1475 1470 1465 1460 1454 1449 1445 1439 1433 1428 1422 1417 1411 1406 1402 1396 1390 1382 1376 1370 1364 1359 1354 1351 1348 1346 1345 1345 1346 1348 1350 1353
1530 1526 1522 1518 1513 1508 1503 1498 1492 1486 1481 1475 1470 1465 1460 1455 1449 1444 1441 1435 1429 1424 1418 1413 1408 1403 1397 1391 1385 1379 1374 1367 1360 1355 1351 1347 1345 1344 1344 1345 1346 1348 1352
1529 1525 1522 1518 1513 1508 1503 1498 1493 1486 1480 1475 1469 1463 1459 1454 1449 1444 1441 1437 1432 1426 1421 1416 1411 1405 1398 1392 1387 1382 1375 1369 1363 1357 1352 1347 1345 1343 1343 1344 1346 1348 1350
1528 1525 1521 1518 1513 1508 1503 1497 1492 1486 1480 1474 1469 1463 1458 1453 1448 1443 1439 1436 1432 1427 1422 1418 1413 1407 1400 1394 1389 1383 1377 1371 1366 1360 1355 1350 1347 1345 1343 1344 1345 1347 1350
1527 1524 1520 1517 1513 1508 1503 1498 1492 1486 1480 1476 1470 1464 1458 1452 1447 1443 1439 1435 1431 1427 1423 1418 1414 1408 1403 1398 1392 1386 1380 1376 1371 1366 1361 1356 1351 1347 1344 1344 1345 1347 1350
1525 1523 1519 1516 1511 1507 1503 1498 1492 1487 1483 1479 1472 1467 1460 1453 1450 1445 1441 1436 1432 1428 1423 1419 1414 1409 1404 1399 1395 1390 1385 1380 1375 1370 1365 1360 1355 1350 1347 1346 1346 1348 1350
1524 1521 1518 1515 1510 1506 1501 1497 1494 1489 1483 1479 1474 1469 1463 1458 1452 1446 1441 1436 1432 1428 1423 1419 1415 1411 1407 1403 1399 1395 1390 1385 1380 1375 1370 1365 1360 1355 1352 1350 1349 1349 1350
1521 1519 1516 1513 1509 1505 1500 1495 1490 1487 1484 1478 1473 1469 1464 1459 1453 1448 1442 1437 1432 1427 1423 1420 1417 1414 1411 1407 1404 1400 1395 1391 1387 1382 1376 1371 1367 1362 1358 1355 1353 1352 1352
1519 1517 1515 1512 1508 1504 1500 1495 1490 1485 1480 1476 1472 1468 1463 1459 1454 1449 1443 1438 1433 1428 1424 1421 1418 1415 1413 1410 1407 1404 1400 1396 1392 1387 1382 1378 1373 1369 1364 1360 1358 1357 1356
1517 1515 1513 1511 1508 1504 1500 1496 1491 1486 1481 1475 1471 1466 1462 1458 1454 1449 1444 1439 1434 1430 1426 1422 1419 1416 1414 1412 1410 1407 1404 1400 1396 1392 1388 1384 1380 1376 1372 1368 1365 1363 1361
1515 1513 1511 1509 1507 1504 1500 1496 1492 1487 1481 1476 1471 1465 1462 1457 1452 1448 1444 1440 1436 1432 1428 1424 1420 1417 1415 1413 1411 1409 1407 1404 1401 1397 1394 1390 1387 1383 1380 1376 1373 1370 1367
1512 1511 1510 1508 1505 1503 1500 1496 1492 1488 1483 1477 1472 1467 1463 1457 1453 1449 1445 1441 1438 1433 1429 1425 1421 1418 1415 1413 1412 1410 1409 1407 1405 1402 1399 1396 1393 1390 1387 1384 1381 1378 1376
1509 1508 1507 1506 1504 1502 1500 1497 1493 1489 1484 1479 1474 1468 1463 1458 1454 1450 1446 1442 1439 1435 1431 1427 1423 1419 1416 1413 1412 1411 1410 1409 1408 1406 1404 1401 1399 1396 1394 1391 1389 1386 1384
1506 1506 1505 1504 1503 1501 1499 1496 1493 1489 1485 1480 1475 1469 1464 1459 1454 1450 1446 1443 1439 1435 1432 1428 1424 1420 1416 1413 1411 1410 1410 1410 1409 1409 1407 1406 1404 1402 1400 1398 1396 1394 1393
1502 1503 1502 1502 1501 1500 1498 1496 1493 1489 1485 1481 1476 1471 1465 1460 1455 1451 1447 1443 1439 1436 1432 1428 1425 1421 1417 1414 1411 1409 1409 1409 1409 1410 1410 1409 1408 1406 1405 1404 1403 1401 1400
1498 1499 1499 1499 1499 1498 1497 1495 1492 1489 1485 1480 1476 1471 1466 1461 1456 1452 1447 1443 1439 1436 1432 1429 1425 1421 1417 1414 1411 1408 1407 1407 1408 1409 1410 1411 1411 1410 1409 1408 1408 1407 1407
1494 1495 1496 1496 1496 1496 1495 1493 1490 1487 1484 1480 1476 1471 1467 1462 1457 1452 1447 1443 1439 1436 1432 1429 1425 1421 1417 1413 1410 1408 1406 1406 1406 1408 1410 1411 1412 1413 1413 1412 1412 1412 1411